period_start,C,m1,H,J0,J1,J2,J3,J4,J5,JA,JB,JC,JD,JJ,JK,JN,#
2016-05-19 00:04:11,0.03,0.24,0.00,24.16,28.51,31.28,14.56,48.63,1026.04,2031.00,3412.26,3075.03,3485.21,599.69,598.86,14.42,0000 0000 0000 0000 000000
2016-05-19 00:09:12,0.02,0.24,0.00,24.19,28.54,31.31,14.60,48.33,1026.03,2030.99,3411.75,3074.66,3484.82,599.83,599.05,14.47,0000 0000 0000 0000 000000
2016-05-19 00:14:13,0.02,0.24,0.00,24.23,28.57,31.33,14.56,48.49,1025.99,2030.96,3411.03,3074.03,3484.06,600.18,599.24,14.52,0000 0000 0000 0000 000000
2016-05-19 00:19:15,0.02,0.24,0.00,24.28,28.60,31.35,14.59,48.75,1025.96,2030.88,3410.44,3073.81,3483.80,600.46,599.42,14.57,0000 0000 0000 0000 000000
2016-05-19 00:24:16,-0.00,0.25,0.00,24.31,28.63,31.40,14.52,48.68,1026.08,2030.59,3409.88,3073.09,3483.06,599.87,598.84,14.62,0000 0000 0000 0000 000000
2016-05-19 00:29:18,-0.01,0.24,0.00,24.36,28.67,31.42,14.69,48.84,1026.23,2030.07,3409.07,3072.79,3482.53,600.28,599.17,14.67,0000 0000 0000 0000 000000
2016-05-19 00:34:19,0.03,0.25,0.00,24.40,28.71,31.45,14.59,48.68,1026.08,2030.03,3408.48,3072.09,3482.01,600.01,598.66,14.72,0000 0000 0000 0000 000000
2016-05-19 00:39:20,0.01,0.25,0.00,24.45,28.74,31.48,14.56,48.47,1026.12,2030.01,3407.92,3071.96,3481.53,600.01,598.70,14.77,0000 0000 0000 0000 000000
2016-05-19 00:44:21,0.07,0.25,0.00,24.48,28.78,31.52,14.59,48.85,1026.26,2030.00,3406.64,3071.09,3480.58,600.17,598.88,14.82,0000 0000 0000 0000 000000
2016-05-19 00:49:23,0.04,0.25,0.00,24.53,28.81,31.54,14.65,48.88,1026.33,2030.00,3405.30,3070.19,3479.87,600.05,598.56,14.87,0000 0000 0000 0000 000000
2016-05-19 00:54:24,0.02,0.25,0.00,24.58,28.85,31.58,14.66,49.00,1026.37,2029.97,3404.69,3069.93,3479.06,600.19,598.88,14.92,0000 0000 0000 0000 000000
2016-05-19 00:59:25,0.02,0.25,0.00,24.62,28.88,31.62,14.64,48.73,1026.37,2029.83,3403.92,3069.12,3478.42,600.36,598.83,14.97,0000 0000 0000 0000 000000
2016-05-19 01:04:27,0.00,0.25,0.00,24.66,28.92,31.65,14.61,48.82,1026.36,2029.37,3402.79,3068.62,3477.73,600.05,598.41,15.02,0000 0000 0000 0000 000000
2016-05-19 01:09:28,0.03,0.26,0.00,24.72,28.96,31.69,14.48,48.58,1026.34,2029.04,3401.53,3067.90,3476.84,599.93,598.15,15.07,0000 0000 0000 0000 000000
2016-05-19 01:14:29,0.04,0.26,0.00,24.76,28.99,31.72,14.55,48.89,1026.32,2029.01,3400.50,3067.10,3476.04,600.27,598.44,15.12,0000 0000 0000 0000 000000
2016-05-19 01:19:31,0.05,0.26,0.00,24.80,29.03,31.76,14.56,48.70,1026.21,2029.00,3399.50,3066.48,3475.25,599.77,597.79,15.17,0000 0000 0000 0000 000000
2016-05-19 01:24:32,0.04,0.26,0.00,24.87,29.06,31.79,14.65,48.87,1026.13,2028.99,3398.37,3065.72,3474.42,600.20,598.03,15.22,0000 0000 0000 0000 000000
2016-05-19 01:29:33,0.04,0.27,0.00,24.92,29.10,31.84,14.55,48.73,1025.98,2028.97,3397.07,3064.97,3473.52,599.78,597.51,15.27,0000 0000 0000 0000 000000
2016-05-19 01:34:35,0.02,0.27,0.00,24.96,29.14,31.87,14.57,48.80,1025.95,2028.66,3395.94,3064.13,3472.73,600.08,597.59,15.32,0000 0000 0000 0000 000000
2016-05-19 01:39:36,0.01,0.27,0.00,25.01,29.18,31.91,14.55,48.71,1026.02,2028.23,3394.76,3063.45,3471.89,599.74,597.26,15.37,0000 0000 0000 0000 000000
2016-05-19 01:44:37,0.04,0.27,0.00,25.08,29.22,31.95,14.59,48.77,1025.96,2028.03,3393.58,3062.63,3470.97,599.82,597.15,15.43,0000 0000 0000 0000 000000
2016-05-19 01:49:39,0.04,0.27,0.00,25.15,29.26,31.99,14.53,48.55,1025.99,2028.00,3392.54,3061.97,3470.08,600.10,597.39,15.48,0000 0000 0000 0000 000000
2016-05-19 01:54:40,0.05,0.27,0.00,25.19,29.31,32.02,14.60,48.79,1025.93,2027.99,3391.65,3061.19,3469.37,600.15,597.24,15.53,0000 0000 0000 0000 000000
2016-05-19 01:59:42,0.02,0.27,0.00,25.23,29.35,32.07,14.55,48.70,1025.92,2027.97,3390.93,3060.71,3468.72,600.10,597.09,15.58,0000 0000 0000 0000 000000
2016-05-19 02:04:43,0.01,0.28,0.00,25.29,29.39,32.10,14.47,48.56,1025.96,2027.81,3390.09,3060.02,3467.99,599.84,596.74,15.63,0000 0000 0000 0000 000000
2016-05-19 02:09:44,-0.00,0.28,0.00,25.34,29.43,32.16,14.48,48.55,1026.16,2027.22,3389.27,3059.47,3467.20,599.68,596.61,15.68,0000 0000 0000 0000 000000
2016-05-19 02:14:45,0.02,0.28,0.00,25.40,29.47,32.20,14.50,48.77,1026.34,2027.01,3388.45,3058.89,3466.48,600.03,596.87,15.73,0000 0000 0000 0000 000000
2016-05-19 02:19:47,0.03,0.28,0.00,25.47,29.51,32.24,14.50,48.49,1026.34,2027.00,3387.75,3058.11,3465.94,599.72,596.53,15.78,0000 0000 0000 0000 000000
2016-05-19 02:24:48,0.03,0.28,0.00,25.52,29.55,32.29,14.52,48.48,1026.32,2026.99,3386.92,3057.70,3465.08,599.75,596.40,15.83,0000 0000 0000 0000 000000
2016-05-19 02:29:49,0.02,0.28,0.00,25.58,29.60,32.35,14.50,48.61,1026.32,2026.86,3386.06,3057.01,3464.38,599.89,596.51,15.88,0000 0000 0000 0000 000000
2016-05-19 02:34:51,-0.00,0.28,0.00,25.64,29.64,32.38,14.53,48.75,1026.33,2026.44,3385.26,3056.44,3463.87,599.95,596.40,15.93,0000 0000 0000 0000 000000
2016-05-19 02:39:52,0.00,0.28,0.00,25.69,29.68,32.44,14.51,48.48,1026.32,2026.07,3384.49,3055.98,3463.06,599.91,596.19,15.98,0000 0000 0000 0000 000000
2016-05-19 02:44:53,0.05,0.28,0.00,25.74,29.73,32.49,14.48,48.41,1026.17,2026.00,3383.70,3055.26,3462.31,600.03,596.14,16.03,0000 0000 0000 0000 000000
2016-05-19 02:49:54,0.02,0.29,0.00,25.81,29.76,32.53,14.49,48.38,1026.25,2025.99,3382.85,3054.77,3461.73,599.56,595.76,16.08,0000 0000 0000 0000 000000
2016-05-19 02:54:56,0.03,0.29,0.00,25.86,29.80,32.59,14.44,48.45,1026.34,2025.94,3381.93,3054.03,3461.00,600.00,595.99,16.13,0000 0000 0000 0000 000000
2016-05-19 02:59:57,0.02,0.29,0.00,25.92,29.85,32.64,14.50,48.40,1026.36,2025.70,3381.09,3053.39,3460.18,600.10,595.92,16.18,0000 0000 0000 0000 000000
2016-05-19 03:04:59,-0.01,0.29,0.00,25.98,29.89,32.69,14.45,48.30,1026.35,2025.11,3380.25,3052.88,3459.49,599.67,595.46,16.23,0000 0000 0000 0000 000000
2016-05-19 03:10:00,0.04,0.29,0.00,26.03,29.93,32.75,14.42,48.27,1026.37,2025.00,3379.29,3052.07,3458.78,599.84,595.50,16.28,0000 0000 0000 0000 000000
2016-05-19 03:15:01,0.04,0.29,0.00,26.10,29.97,32.80,14.51,48.39,1026.37,2025.00,3378.30,3051.41,3458.02,600.14,595.62,16.33,0000 0000 0000 0000 000000
2016-05-19 03:20:02,0.02,0.29,0.00,26.15,30.01,32.85,14.49,48.36,1026.38,2024.98,3377.77,3050.98,3457.33,600.06,595.49,16.38,0000 0000 0000 0000 000000
2016-05-19 03:25:04,-0.01,0.29,0.00,26.20,30.05,32.92,14.39,48.18,1026.38,2024.67,3377.00,3050.31,3456.77,599.76,595.00,16.43,0000 0000 0000 0000 000000
2016-05-19 03:30:05,-0.01,0.29,0.00,26.26,30.09,32.96,14.42,48.34,1026.38,2024.18,3376.16,3049.98,3456.05,599.57,594.70,16.48,0000 0000 0000 0000 000000
2016-05-19 03:35:07,0.04,0.29,0.00,26.33,30.13,33.01,14.43,48.33,1026.38,2024.04,3375.52,3049.27,3455.63,599.81,594.96,16.53,0000 0000 0000 0000 000000
2016-05-19 03:40:08,0.02,0.30,0.00,26.36,30.17,33.06,14.44,48.38,1026.38,2024.00,3374.76,3048.82,3454.97,599.96,595.03,16.58,0000 0000 0000 0000 000000
2016-05-19 03:45:09,0.04,0.30,0.00,26.42,30.21,33.12,14.44,48.41,1026.38,2024.00,3373.88,3048.05,3454.19,599.71,594.71,16.63,0000 0000 0000 0000 000000
2016-05-19 03:50:11,0.02,0.30,0.00,26.48,30.25,33.17,14.51,48.34,1026.38,2023.98,3373.05,3047.78,3453.77,600.25,595.08,16.68,0000 0000 0000 0000 000000
2016-05-19 03:55:12,0.03,0.30,0.00,26.51,30.29,33.23,14.37,48.08,1026.38,2023.90,3372.18,3047.03,3453.00,599.67,594.38,16.73,0000 0000 0000 0000 000000
2016-05-19 04:00:13,0.01,0.30,0.00,26.57,30.34,33.28,14.51,48.32,1026.39,2023.53,3371.47,3046.42,3452.27,599.93,594.47,16.78,0000 0000 0000 0000 000000
2016-05-19 04:05:14,-0.01,0.30,0.00,26.62,30.38,33.33,14.47,48.28,1026.39,2023.11,3370.80,3045.99,3451.72,599.86,594.31,16.83,0000 0000 0000 0000 000000
2016-05-19 04:10:16,0.03,0.30,0.00,26.66,30.42,33.37,14.48,48.32,1026.39,2023.01,3370.04,3045.21,3451.00,600.19,594.62,16.88,0000 0000 0000 0000 000000
2016-05-19 04:15:17,0.03,0.30,0.00,26.69,30.47,33.43,14.51,48.20,1026.38,2023.00,3369.28,3044.82,3450.24,599.63,593.98,16.93,0000 0000 0000 0000 000000
2016-05-19 04:20:18,0.04,0.31,0.00,26.75,30.51,33.47,14.49,48.26,1026.40,2022.96,3368.55,3044.04,3449.57,600.31,594.56,16.98,0000 0000 0000 0000 000000
2016-05-19 04:25:19,0.04,0.31,0.00,26.80,30.56,33.52,14.48,48.31,1026.38,2022.69,3367.15,3043.16,3448.44,600.10,594.27,17.03,0000 0000 0000 0000 000000
2016-05-19 04:30:21,0.05,0.31,0.00,26.84,30.62,33.55,14.50,48.45,1026.40,2022.13,3365.08,3041.65,3446.74,600.21,594.31,17.08,0000 0000 0000 0000 000000
2016-05-19 04:35:22,0.09,0.32,0.00,26.89,30.67,33.59,14.36,48.26,1026.41,2022.00,3362.92,3040.19,3444.97,599.82,593.86,17.13,0000 0000 0000 0000 000000
2016-05-19 04:40:24,0.05,0.32,0.00,26.92,30.72,33.63,14.39,48.25,1026.40,2022.00,3361.61,3039.22,3443.98,599.87,593.86,17.18,0000 0000 0000 0000 000000
2016-05-19 04:45:25,0.04,0.32,0.00,26.97,30.78,33.66,14.36,48.24,1026.39,2021.96,3360.82,3038.49,3443.08,599.70,593.47,17.23,0000 0000 0000 0000 000000
2016-05-19 04:50:26,-0.01,0.32,0.00,27.00,30.83,33.70,14.39,48.18,1026.40,2021.68,3360.01,3037.93,3442.25,599.97,593.67,17.28,0000 0000 0000 0000 000000
2016-05-19 04:55:28,0.00,0.32,0.00,27.03,30.89,33.74,14.55,48.49,1026.40,2021.09,3359.17,3037.10,3441.53,600.42,594.09,17.33,0000 0000 0000 0000 000000
2016-05-19 05:00:29,0.04,0.32,0.00,27.07,30.95,33.77,14.36,48.27,1026.40,2021.00,3358.28,3036.41,3440.74,599.53,593.27,17.38,0000 0000 0000 0000 000000
2016-05-19 05:05:30,0.02,0.32,0.00,27.04,31.00,33.81,14.43,48.33,1026.39,2020.96,3357.45,3035.89,3439.99,600.15,593.82,17.43,0000 0000 0000 0000 000000
2016-05-19 05:10:31,0.00,0.33,0.00,27.07,31.06,33.84,14.44,48.34,1026.40,2020.63,3356.64,3035.07,3439.13,599.89,593.54,17.48,0000 0000 0000 0000 000000
2016-05-19 05:15:33,0.01,0.32,0.00,27.11,31.11,33.90,14.43,48.11,1026.40,2020.10,3355.80,3034.44,3438.44,599.90,593.47,17.53,0000 0000 0000 0000 000000
2016-05-19 05:20:34,0.02,0.33,0.00,27.01,31.16,33.92,14.42,48.27,1026.41,2020.00,3354.96,3033.90,3437.76,599.83,593.68,17.58,0000 0000 0000 0000 000000
2016-05-19 05:25:35,0.04,0.33,0.00,27.01,31.21,33.95,14.49,48.14,1026.42,2019.99,3354.08,3033.08,3436.99,600.04,593.77,17.63,0000 0000 0000 0000 000000
2016-05-19 05:30:37,0.03,0.33,0.00,27.01,31.26,34.01,14.44,48.35,1026.47,2019.90,3353.28,3032.59,3436.19,599.93,593.71,17.68,0000 0000 0000 0000 000000
2016-05-19 05:35:38,-0.02,0.33,0.00,26.90,31.30,34.17,14.50,48.39,1026.43,2019.39,3352.43,3032.01,3435.60,600.23,594.27,17.73,0000 0000 0000 0000 000000
2016-05-19 05:40:39,0.01,0.33,0.00,26.74,31.32,34.59,14.55,48.43,1026.40,2019.08,3351.60,3031.41,3434.98,600.25,594.63,17.78,0000 0000 0000 0000 000000
2016-05-19 05:45:40,0.01,0.33,0.00,26.61,31.32,34.68,14.51,48.48,1026.39,2019.01,3350.96,3031.01,3434.32,599.91,594.42,17.83,0000 0000 0000 0000 000000
2016-05-19 05:50:42,0.01,0.33,0.00,26.51,31.32,34.57,14.55,48.51,1026.39,2019.01,3350.27,3030.92,3434.01,600.11,594.77,17.88,0000 0000 0000 0000 000000
2016-05-19 05:55:43,0.01,0.33,0.00,26.45,31.31,34.51,14.62,48.52,1026.40,2019.01,3349.99,3030.55,3433.96,599.90,594.75,17.93,0000 0000 0000 0000 000000
2016-05-19 06:00:44,0.03,0.33,0.00,26.39,31.30,34.38,14.46,48.41,1026.38,2019.01,3349.41,3030.05,3433.35,599.78,594.93,17.98,0000 0000 0000 0000 000000
2016-05-19 06:05:46,0.01,0.34,0.00,26.32,31.27,34.31,14.60,48.51,1026.39,2019.07,3348.97,3030.00,3433.01,600.22,595.25,18.03,0000 0000 0000 0000 000000
2016-05-19 06:10:47,0.03,0.34,0.00,26.29,31.24,34.25,14.58,48.52,1026.39,2019.32,3348.68,3029.99,3433.00,600.31,595.44,18.08,0000 0000 0000 0000 000000
2016-05-19 06:15:49,0.04,0.34,0.00,26.25,31.20,34.20,14.57,48.60,1026.38,2019.65,3348.03,3029.95,3432.98,600.20,595.47,18.14,0000 0000 0000 0000 000000
2016-05-19 06:20:50,0.02,0.34,0.00,26.21,31.15,34.11,14.52,48.63,1026.38,2019.94,3347.95,3029.81,3432.87,600.08,595.39,18.18,0000 0000 0000 0000 000000
2016-05-19 06:25:51,0.04,0.34,0.00,26.21,31.10,34.04,14.57,48.60,1026.38,2019.97,3347.40,3029.43,3432.47,600.14,595.40,18.24,0000 0000 0000 0000 000000
2016-05-19 06:30:52,0.00,0.34,0.00,26.21,31.06,33.94,14.50,48.55,1026.38,2019.99,3347.01,3029.18,3432.12,599.63,594.97,18.29,0000 0000 0000 0000 000000
2016-05-19 06:35:53,0.00,0.34,0.00,26.18,31.01,33.91,14.53,48.51,1026.38,2020.00,3346.99,3029.10,3432.03,599.82,595.26,18.34,0000 0000 0000 0000 000000
2016-05-19 06:40:55,0.00,0.34,0.00,26.18,30.95,33.87,14.45,48.51,1026.38,2020.02,3346.83,3029.09,3432.01,600.16,595.58,18.39,0000 0000 0000 0000 000000
2016-05-19 06:45:57,0.04,0.34,0.00,26.20,30.90,33.79,14.54,48.43,1026.37,2020.34,3346.44,3029.16,3432.02,600.08,595.42,18.44,0000 0000 0000 0000 000000
2016-05-19 06:50:58,0.05,0.35,0.00,26.17,30.85,33.73,14.52,48.46,1026.35,2020.89,3346.06,3029.12,3432.02,600.14,595.45,18.49,0000 0000 0000 0000 000000
2016-05-19 06:55:59,0.00,0.35,0.00,26.17,30.80,33.70,14.53,48.44,1026.28,2020.98,3346.00,3029.06,3432.01,599.78,594.92,18.54,0000 0000 0000 0000 000000
2016-05-19 07:01:00,0.00,0.35,0.00,26.19,30.75,33.61,14.51,48.38,1026.23,2020.99,3345.85,3029.03,3432.00,599.95,595.18,18.59,0000 0000 0000 0000 000000
2016-05-19 07:06:02,0.01,0.35,0.00,26.19,30.70,33.58,14.57,48.49,1026.32,2021.03,3345.43,3029.08,3432.01,599.82,595.08,18.64,0000 0000 0000 0000 000000
2016-05-19 07:11:03,0.03,0.35,0.00,26.18,30.65,33.56,14.55,48.52,1026.37,2021.31,3345.04,3029.08,3432.00,600.33,595.60,18.69,0000 0000 0000 0000 000000
2016-05-19 07:16:04,0.05,0.35,0.00,26.20,30.60,33.51,14.42,48.53,1026.37,2021.88,3345.00,3029.14,3432.01,599.93,595.24,18.74,0000 0000 0000 0000 000000
2016-05-19 07:21:06,0.01,0.35,0.00,26.21,30.55,33.44,14.47,48.42,1026.37,2021.99,3344.99,3029.07,3432.00,599.98,595.14,18.79,0000 0000 0000 0000 000000
2016-05-19 07:26:07,0.00,0.35,0.00,26.19,30.50,33.41,14.54,48.39,1026.37,2021.99,3344.82,3029.12,3432.01,599.93,595.43,18.84,0000 0000 0000 0000 000000
2016-05-19 07:31:08,0.01,0.36,0.00,26.17,30.45,33.35,14.56,48.47,1026.37,2022.00,3344.12,3029.06,3432.00,600.21,595.57,18.89,0000 0000 0000 0000 000000
2016-05-19 07:36:09,0.02,0.36,0.00,26.18,30.41,33.27,14.53,48.42,1026.37,2022.16,3344.01,3029.06,3432.00,600.05,595.43,18.94,0000 0000 0000 0000 000000
2016-05-19 07:41:10,0.05,0.36,0.00,26.20,30.36,33.23,14.49,48.56,1026.33,2022.80,3344.00,3029.13,3432.00,600.12,595.33,18.99,0000 0000 0000 0000 000000
2016-05-19 07:46:12,0.00,0.36,0.00,26.15,30.32,33.19,14.43,48.39,1026.21,2022.98,3343.99,3029.18,3432.00,599.73,595.14,19.04,0000 0000 0000 0000 000000
2016-05-19 07:51:13,0.00,0.36,0.00,26.11,30.28,33.17,14.45,48.34,1026.22,2022.99,3343.83,3029.14,3432.00,599.56,594.89,19.09,0000 0000 0000 0000 000000
2016-05-19 07:56:14,0.01,0.36,0.00,26.10,30.24,33.13,14.46,48.47,1026.22,2023.02,3343.16,3029.05,3432.00,599.88,595.46,19.14,0000 0000 0000 0000 000000
2016-05-19 08:01:16,0.04,0.36,0.00,26.13,30.21,32.98,14.46,48.62,1026.16,2023.34,3343.01,3029.09,3432.00,599.62,594.91,19.19,0000 0000 0000 0000 000000
2016-05-19 08:06:17,0.04,0.36,0.00,26.09,30.16,32.94,14.56,48.68,1026.14,2023.84,3343.00,3029.08,3432.00,600.11,595.44,19.24,0000 0000 0000 0000 000000
2016-05-19 08:11:18,0.00,0.37,0.00,26.03,30.13,32.99,14.53,48.54,1026.07,2023.97,3342.96,3029.04,3432.00,599.68,595.15,19.29,0000 0000 0000 0000 000000
2016-05-19 08:16:20,0.01,0.37,0.00,25.96,30.08,32.96,14.49,48.19,1026.01,2023.99,3342.72,3029.04,3431.99,600.11,595.67,19.34,0000 0000 0000 0000 000000
2016-05-19 08:21:21,0.00,0.37,0.00,25.91,30.03,32.91,14.51,48.27,1025.96,2024.00,3342.01,3029.01,3431.92,600.00,595.67,19.39,0000 0000 0000 0000 000000
2016-05-19 08:26:22,0.16,0.37,0.00,25.80,29.98,32.86,14.39,48.15,1025.91,2024.09,3338.52,3027.47,3430.18,599.55,595.29,19.44,0000 0000 0000 0000 000000
2016-05-19 08:31:23,0.08,0.38,0.00,25.73,29.92,32.84,14.51,48.39,1025.90,2024.67,3337.41,3027.05,3429.90,599.89,595.93,19.49,0000 0000 0000 0000 000000
2016-05-19 08:36:25,0.01,0.38,0.00,25.70,29.86,32.73,14.47,48.55,1025.91,2024.97,3337.04,3027.14,3429.94,599.76,595.87,19.54,0000 0000 0000 0000 000000
2016-05-19 08:41:26,-0.00,0.38,0.00,25.69,29.79,32.66,14.50,48.58,1025.91,2024.99,3337.00,3027.40,3429.98,599.97,596.07,19.59,0000 0000 0000 0000 000000
2016-05-19 08:46:27,0.04,0.38,0.00,25.67,29.74,32.57,14.47,48.77,1025.90,2025.01,3336.28,3027.06,3429.30,599.61,595.82,19.64,0000 0000 0000 0000 000000
2016-05-19 08:51:28,0.06,0.38,0.00,25.64,29.67,32.51,14.54,48.63,1025.90,2025.49,3336.00,3027.00,3429.10,600.40,596.50,19.69,0000 0000 0000 0000 000000
2016-05-19 08:56:29,0.02,0.39,0.00,25.62,29.61,32.45,14.52,48.52,1025.90,2025.97,3335.98,3027.04,3429.59,599.87,596.14,19.74,0000 0000 0000 0000 000000
2016-05-19 09:01:30,-0.01,0.38,0.00,25.62,29.54,32.37,14.44,48.35,1025.90,2025.99,3335.99,3027.21,3429.93,599.87,596.14,19.79,0000 0000 0000 0000 000000
2016-05-19 09:06:31,-0.00,0.38,0.00,25.63,29.48,32.25,14.45,48.42,1025.90,2026.09,3335.98,3027.75,3429.99,599.65,595.92,19.84,0000 0000 0000 0000 000000
2016-05-19 09:11:32,0.07,0.39,0.00,25.64,29.41,32.13,14.36,48.52,1025.89,2026.75,3335.99,3027.97,3429.99,599.17,595.67,19.89,0000 0000 0000 0000 000000
2016-05-19 09:16:34,0.00,0.39,0.00,25.61,29.36,32.17,14.44,48.47,1025.88,2026.97,3335.97,3027.98,3430.00,599.68,596.01,19.94,0000 0000 0000 0000 000000
2016-05-19 09:21:35,0.00,0.39,0.00,25.61,29.30,32.13,14.58,48.38,1025.88,2026.99,3335.87,3027.99,3430.01,600.10,596.24,19.99,0000 0000 0000 0000 000000
2016-05-19 09:26:36,0.01,0.39,0.00,25.63,29.25,32.11,14.48,48.29,1025.88,2027.07,3335.68,3027.99,3430.02,599.74,595.95,20.04,0000 0000 0000 0000 000000
2016-05-19 09:31:37,0.06,0.39,0.00,25.64,29.20,32.11,14.52,48.33,1025.84,2027.63,3335.54,3028.00,3430.16,600.21,596.31,20.09,0000 0000 0000 0000 000000
2016-05-19 09:36:39,0.02,0.39,0.00,25.62,29.15,32.09,14.48,48.41,1025.77,2027.96,3335.11,3028.00,3430.10,600.02,596.11,20.14,0000 0000 0000 0000 000000
2016-05-19 09:41:40,-0.00,0.39,0.00,25.60,29.11,32.08,14.47,48.18,1025.79,2027.99,3335.03,3028.02,3430.25,599.98,596.15,20.19,0000 0000 0000 0000 000000
2016-05-19 09:46:41,0.00,0.39,0.00,25.59,29.08,32.06,14.42,48.46,1025.76,2028.00,3335.01,3028.02,3430.40,599.71,595.99,20.24,0000 0000 0000 0000 000000
2016-05-19 09:51:42,0.00,0.39,0.00,25.57,29.04,32.04,14.51,48.63,1025.71,2028.05,3335.00,3028.03,3430.28,599.99,596.37,20.29,0000 0000 0000 0000 000000
2016-05-19 09:56:44,0.04,0.39,0.00,25.55,29.01,32.02,14.55,48.57,1025.60,2028.30,3334.99,3028.01,3430.11,600.17,596.41,20.34,0000 0000 0000 0000 000000
2016-05-19 10:01:45,0.04,0.40,0.00,25.57,29.00,32.01,14.45,48.27,1025.63,2028.84,3334.97,3028.01,3430.06,600.06,596.26,20.39,0000 0000 0000 0000 000000
2016-05-19 10:06:46,0.00,0.40,0.00,25.59,28.97,32.00,14.52,48.42,1025.47,2028.93,3334.84,3028.01,3430.01,600.04,596.08,20.44,0000 0000 0000 0000 000000
2016-05-19 10:11:47,0.01,0.40,0.00,25.57,28.95,31.99,14.46,48.41,1025.44,2028.98,3334.38,3028.00,3430.00,600.15,596.16,20.49,0000 0000 0000 0000 000000
2016-05-19 10:16:49,0.00,0.40,0.00,25.56,28.93,31.86,14.41,48.34,1025.42,2028.99,3334.01,3028.00,3429.99,599.69,595.76,20.54,0000 0000 0000 0000 000000
2016-05-19 10:21:50,0.00,0.40,0.00,25.57,28.91,31.70,14.43,48.58,1025.43,2028.99,3333.98,3027.99,3429.97,600.20,596.25,20.59,0000 0000 0000 0000 000000
2016-05-19 10:26:51,0.01,0.40,0.00,25.57,28.90,31.57,14.50,48.90,1025.43,2028.99,3333.56,3027.95,3429.75,599.92,596.00,20.64,0000 0000 0000 0000 000000
2016-05-19 10:31:52,0.02,0.40,0.00,25.60,28.88,31.51,14.52,48.79,1025.43,2028.99,3333.06,3027.73,3429.26,600.07,595.88,20.69,0000 0000 0000 0000 000000
2016-05-19 10:36:53,0.01,0.40,0.00,25.62,28.86,31.50,14.49,48.78,1025.43,2028.99,3333.00,3027.13,3429.02,600.21,596.16,20.74,0000 0000 0000 0000 000000
2016-05-19 10:41:55,0.01,0.40,0.00,25.67,28.85,31.51,14.39,48.76,1025.44,2029.03,3332.73,3027.04,3429.00,599.95,595.80,20.79,0000 0000 0000 0000 000000
2016-05-19 10:46:56,0.01,0.40,0.00,25.70,28.83,31.52,14.48,48.75,1025.43,2029.06,3332.11,3027.00,3428.99,600.08,595.86,20.84,0000 0000 0000 0000 000000
2016-05-19 10:51:57,0.01,0.40,0.00,25.72,28.82,31.52,14.46,48.66,1025.43,2029.09,3331.98,3027.00,3428.73,599.85,595.48,20.89,0000 0000 0000 0000 000000
2016-05-19 10:56:58,0.02,0.40,0.00,25.76,28.81,31.54,14.45,48.60,1025.43,2029.18,3331.62,3026.93,3428.15,600.12,595.67,20.94,0000 0000 0000 0000 000000
2016-05-19 11:01:59,0.03,0.41,0.00,25.80,28.80,31.56,14.36,48.41,1025.43,2029.36,3331.03,3026.62,3428.01,599.85,595.35,20.99,0000 0000 0000 0000 000000
2016-05-19 11:07:01,0.01,0.41,0.00,25.83,28.80,31.57,14.51,48.63,1025.42,2029.39,3330.97,3026.09,3427.99,600.57,596.04,21.04,0000 0000 0000 0000 000000
2016-05-19 11:12:02,0.02,0.41,0.00,25.86,28.80,31.60,14.41,48.40,1025.51,2029.36,3330.39,3026.00,3427.75,599.82,595.45,21.09,0000 0000 0000 0000 000000
2016-05-19 11:17:03,0.03,0.41,0.00,25.90,28.80,31.59,14.50,48.50,1025.60,2029.54,3330.02,3025.99,3427.17,600.12,595.68,21.14,0000 0000 0000 0000 000000
2016-05-19 11:22:05,0.02,0.41,0.00,25.90,28.80,31.58,14.47,48.33,1025.67,2029.72,3329.96,3025.96,3427.01,600.08,595.70,21.19,0000 0000 0000 0000 000000
2016-05-19 11:27:06,0.01,0.41,0.00,25.92,28.78,31.57,14.50,48.20,1025.53,2029.65,3329.26,3025.44,3426.99,600.17,595.69,21.24,0000 0000 0000 0000 000000
2016-05-19 11:32:08,0.03,0.41,0.00,25.96,28.77,31.58,14.40,48.17,1025.49,2029.79,3329.01,3025.04,3426.69,599.82,595.26,21.29,0000 0000 0000 0000 000000
2016-05-19 11:37:09,0.01,0.41,0.00,26.04,28.78,31.59,14.37,48.13,1025.67,2029.79,3328.64,3024.99,3426.06,599.85,595.10,21.34,0000 0000 0000 0000 000000
2016-05-19 11:42:10,0.01,0.41,0.00,26.16,28.80,31.60,14.45,48.31,1025.64,2029.77,3328.02,3024.93,3426.00,600.13,595.17,21.39,0000 0000 0000 0000 000000
2016-05-19 11:47:11,0.02,0.42,0.00,26.21,28.80,31.62,14.40,48.16,1025.47,2029.71,3327.85,3024.34,3425.70,599.74,594.31,21.44,0000 0000 0000 0000 000000
2016-05-19 11:52:13,0.01,0.42,0.00,26.22,28.82,31.65,14.34,47.97,1025.44,2029.54,3327.07,3024.01,3425.05,599.85,594.51,21.49,0000 0000 0000 0000 000000
2016-05-19 11:57:14,-0.02,0.42,0.00,26.22,28.83,31.69,14.42,48.17,1025.46,2029.20,3326.87,3023.94,3424.88,599.73,594.56,21.54,0000 0000 0000 0000 000000
2016-05-19 12:02:15,0.04,0.42,0.00,26.15,28.85,31.74,14.55,48.20,1025.43,2029.09,3326.08,3023.24,3424.12,600.29,595.15,21.59,0000 0000 0000 0000 000000
2016-05-19 12:07:16,0.00,0.42,0.00,26.04,28.87,31.77,14.44,48.18,1025.46,2029.04,3325.91,3023.00,3424.00,600.07,595.21,21.64,0000 0000 0000 0000 000000
2016-05-19 12:12:17,0.02,0.42,0.00,25.98,28.88,31.78,14.44,48.17,1025.43,2029.03,3325.14,3022.97,3423.79,600.17,595.36,21.69,0000 0000 0000 0000 000000
2016-05-19 12:17:18,0.03,0.42,0.00,25.98,28.90,31.77,14.45,48.32,1025.42,2029.01,3324.96,3022.34,3423.08,600.20,595.41,21.74,0000 0000 0000 0000 000000
2016-05-19 12:22:20,0.01,0.42,0.00,25.97,28.91,31.82,14.49,48.21,1025.41,2029.00,3324.25,3022.01,3422.90,599.77,594.90,21.79,0000 0000 0000 0000 000000
2016-05-19 12:27:21,0.02,0.42,0.00,25.94,28.93,31.83,14.40,48.11,1025.41,2029.00,3323.95,3021.87,3422.14,599.88,595.13,21.85,0000 0000 0000 0000 000000
2016-05-19 12:32:22,0.03,0.42,0.00,25.94,28.95,31.82,14.41,48.41,1025.41,2028.99,3323.13,3021.12,3421.98,599.65,594.89,21.90,0000 0000 0000 0000 000000
2016-05-19 12:37:23,0.01,0.42,0.00,25.93,28.97,31.80,14.43,48.40,1025.41,2028.99,3322.90,3021.00,3421.29,599.83,595.22,21.95,0000 0000 0000 0000 000000
2016-05-19 12:42:24,0.02,0.43,0.00,25.90,28.99,31.83,14.53,48.25,1025.41,2028.98,3322.12,3020.73,3421.00,600.48,595.74,22.00,0000 0000 0000 0000 000000
2016-05-19 12:47:25,0.03,0.43,0.00,25.91,29.01,31.85,14.49,48.30,1025.40,2028.97,3321.86,3020.06,3420.54,600.07,595.40,22.05,0000 0000 0000 0000 000000
2016-05-19 12:52:26,0.01,0.43,0.00,25.92,29.02,31.85,14.48,48.44,1025.40,2028.91,3321.10,3019.98,3420.01,600.17,595.49,22.10,0000 0000 0000 0000 000000
2016-05-19 12:57:28,-0.02,0.43,0.00,25.90,29.04,31.88,14.42,48.22,1025.40,2028.53,3320.83,3019.45,3419.76,599.97,595.21,22.15,0000 0000 0000 0000 000000